Location: Cheyres
(46.8153°N, 6.7877°E)
Time: 20:57:09
(UTC+00:00)

BlueWalker 3 - Pass Details

Date: 28 February 2024
Orbit: 485 x 495 km, 53.2° (Epoch: 21 April)

Event Time Altitude Azimuth Distance (km) Brightness Sun altitude
Rises 18:38:08 0° 297° (WNW) 2,564 6.9 -14.8°
Reaches altitude 10° 18:40:25 10° 305° (NW) 1,679 5.5 -15.2°
Maximum altitude 18:43:59 39° 15° (NNE) 749 2.7 -15.8°
Enters shadow 18:45:18 29° 60° (ENE) 928 2.8 -16.0°
